Flag for Colombia Weather past 2 weeks in Barranquilla, Colombia

Now
79 °F

Fog.


Feels Like: 83 °F
Forecast: 78 / 89 °F
Wind: 3 mph from Southeast

Location: Barranquilla / Ernestocortissoz


UV Index: 7 (High)

Visibility: 2 mi


Pressure: 29.87 "Hg

Humidity: 94%

Dew point: 77 °F

Location of BarranquillaLocation

Historic Weather in Barranquilla

°F

Barranquilla temperature yesterday

Maximum temperature yesterday: 95 °F (at 12:00 PM)
Minimum temperature yesterday: 79 °F (at 2:00 AM)
Average temperature yesterday: 83 °F

Past Weeks' High & Low Weather Summary

 TemperatureHumidityPressure
High102 °F (Apr 19, 4:00 PM)100% (Apr 9, 6:00 AM)29.92 "Hg (Apr 9, 6:00 AM)
Low75 °F (Apr 13, 4:00 AM)42% (Apr 19, 4:00 PM)29.72 "Hg (Apr 12, 4:00 PM)
Average83 °F81%29.80 "Hg
* Reported Apr 9 6:00 AM — Apr 24 6:00 AM, Barranquilla, Weather by CustomWeather, © 2014

Note: Actual official high and low records may vary slightly from our data, if they occured in-between our weather recording intervals... More about our weather records

Advertising

Historic Weather Conditions — Data for Previous 24 hours

 ConditionsComfort  
Time TempWeatherWind HumidityBarometerVisibility
6:00 AM
Apr 24
77 °FBroken clouds.No wind94%29.85 "Hg2 mi
5:00 AM79 °FPassing clouds.3 mph94%29.83 "HgN/A
4:00 AM79 °FPassing clouds.No wind94%29.81 "HgN/A
3:00 AM79 °FPassing clouds.No wind94%29.82 "HgN/A
2:00 AM79 °FPassing clouds.No wind94%29.82 "HgN/A
1:00 AM79 °FPassing clouds.3 mph94%29.84 "HgN/A
12:00 AM79 °FPassing clouds.6 mph94%29.86 "HgN/A
11:00 PM
Apr 23
79 °FPassing clouds.7 mph100%29.88 "HgN/A
10:00 PM81 °FPassing clouds.8 mph94%29.87 "HgN/A
9:00 PM81 °FPartly cloudy.10 mph89%29.85 "HgN/A
8:00 PM81 °FPartly cloudy.12 mph89%29.83 "HgN/A
7:00 PM81 °FPartly cloudy.8 mph89%29.83 "HgN/A
6:00 PM82 °FPartly sunny.8 mph84%29.79 "Hg5 mi
5:00 PM84 °FPartly sunny.8 mph79%29.74 "Hg4 mi
4:00 PM84 °FBroken clouds.13 mph79%29.75 "Hg5 mi
3:00 PM84 °FPartly sunny.9 mph79%29.74 "Hg5 mi
2:00 PM88 °FScattered clouds.15 mph70%29.76 "Hg5 mi
1:00 PM93 °FScattered clouds.10 mph63%29.79 "Hg5 mi
12:00 PM95 °FPassing clouds.12 mph56%29.82 "HgN/A
11:00 AM91 °FPassing clouds.7 mph63%29.83 "HgN/A
10:00 AM90 °FScattered clouds.7 mph67%29.85 "HgN/A
9:00 AM86 °FPartly sunny.5 mph79%29.87 "HgN/A
8:00 AM82 °FBroken clouds.9 mph89%29.85 "Hg4 mi
7:00 AM81 °FFog.12 mph89%29.84 "Hg2 mi
Weather by CustomWeather, © 2014

See weather overview